Regional Weather Roundup
Issued by NWS

Home | Current Version | Previous Version | Text Only | Print | Product List | Glossary On
Versions: 1 2 3 4 5 6 7 8 9 10 11 12 13 14 15 16 17 18 19 20 21 22 23 24 25 26 27 28 29 30 31 32 33 34 35 36 37 38 39 40 41 42 43 44 45 46 47 48 49 50
000
ASUS43 KLSX 262307
RWRMO

WEATHER SUMMARY FOR MISSOURI
NATIONAL WEATHER SERVICE SPRINGFIELD MO
600 PM CDT SUN MAY 26 2019

NOTE: "FAIR" INDICATES FEW OR NO CLOUDS BELOW 12,000 FEET WITH NO
       SIGNIFICANT WEATHER AND/OR OBSTRUCTIONS TO VISIBILITY.
       CURRENT SKY AND/OR WEATHER CONDITIONS ARE NOT AVAILABLE FOR
       CHILLICOTHE AND FARMINGTON.

MOZ001>031-035>038-043-044-053-054-270000-
...NORTHERN AND WESTERN MISSOURI...

CITY           SKY/WX    TMP DP  RH WIND       PRES   REMARKS
KANSAS CTY INT CLOUDY    79  66  64 S8        29.98F
KANSAS C DTWN  CLOUDY    82  62  50 S10       29.97F
LEE`S SUMMIT   CLOUDY    78  63  59 S12       30.00F
ST JOSEPH      CLOUDY    81  65  58 S8        29.96F
CHILLICOTHE      N/A     81  67  62 SW7       30.00F
KIRKSVILLE     MOSUNNY   79  67  66 SE3       30.02F

$$
MOZ066>068-077>081-088>096-101>105-270000-
...SOUTHWEST MISSOURI...

CITY           SKY/WX    TMP DP  RH WIND       PRES   REMARKS
SPRINGFIELD    CLOUDY    79  67  66 S8        30.03F
JOPLIN         CLOUDY    79  68  69 S10       30.00F
BRANSON        CLOUDY    81  68  65 S5        30.07F

$$
MOZ032>034-039>042-045>050-055>058-069>072-270000-
...CENTRAL MISSOURI...

CITY           SKY/WX    TMP DP  RH WIND       PRES   REMARKS
COLUMBIA       MOSUNNY   80  68  66 S8        30.04S
ROLLA          PTSUNNY   77  65  66 SW6       30.06F
SEDALIA        PTSUNNY   75  66  73 S5        30.03F
WHITEMAN AFB   CLOUDY    78  67  66 S7        29.98F
WARRENSBURG    CLOUDY    79  64  61 S8        30.02F
OSAGE BEACH    CLOUDY    79  67  66 CALM      30.04F

$$
MOZ051-052-059>065-270000-
...EAST CENTRAL MISSOURI...

CITY           SKY/WX    TMP DP  RH WIND       PRES   REMARKS
ST LOUIS INTL  PTSUNNY   82  65  56 CALM      30.03F
SPIRIT OF STL  PTSUNNY   84  65  52 W5        30.02F
ST CHARLES       N/A    N/A N/A N/A MISG      30.02F

$$
MOZ072>076-082>087-097>100-106>115-270000-
...SOUTH CENTRAL AND SOUTHEAST MISSOURI...

CITY           SKY/WX    TMP DP  RH WIND       PRES   REMARKS
CAPE GIRARDEAU FAIR      88  66  48 NW10      30.01F HX  90
FARMINGTON     MOSUNNY   82  64  54 VRB3      30.06S
POPLAR BLUFF   FAIR      86  69  56 W8        30.02S HX  90
WEST PLAINS    SUNNY     82  67  60 S8        30.07S

$$




USA.gov is the U.S. government's official web portal to all federal, state and local government web resources and services.